Location: Ammerl�gen
(47.2167°N, 9.6000°E)
Time: 15:39:29
(UTC+00:00)

Cosmos 841 Rocket - Pass Details

Date: 21 April 2021
Orbit: 747 x 772 km, 74.0° (Epoch: 06 May)

Event Time Altitude Azimuth Distance (km) Brightness Sun altitude
Rises 21:27:23 0° 338° (NNW) 3,237 8.1 -25.5°
Reaches altitude 10° 21:29:47 10° 340° (NNW) 2,303 7.0 -25.7°
Maximum altitude 21:35:01 76° 67° (ENE) 785 3.4 -26.1°
Enters shadow 21:35:03 76° 71° (ENE) 786 3.4 -26.1°
